TimeCST,TemperatureF,Dew PointF,Humidity,Sea Level PressureIn,VisibilityMPH,Wind Direction,Wind SpeedMPH,Gust SpeedMPH,PrecipitationIn,Events,Conditions,WindDirDegrees,DateUTC
12:15 AM,32.0,10.4,41,30.20,10.0,South,12.7,17.3,N/A,,Mostly Cloudy,190,2013-02-02 06:15:00
12:35 AM,30.2,10.4,44,30.19,10.0,South,9.2,-,N/A,,Clear,190,2013-02-02 06:35:00
12:55 AM,30.2,12.2,47,30.19,10.0,South,9.2,-,N/A,,Clear,190,2013-02-02 06:55:00
1:15 AM,30.2,12.2,47,30.18,10.0,South,9.2,-,N/A,,Clear,190,2013-02-02 07:15:00
1:35 AM,30.2,12.2,47,30.17,10.0,SSW,8.1,-,N/A,,Clear,200,2013-02-02 07:35:00
1:55 AM,30.2,12.2,47,30.17,10.0,SSW,8.1,-,N/A,,Clear,200,2013-02-02 07:55:00
2:15 AM,30.2,12.2,47,30.17,10.0,South,9.2,-,N/A,,Clear,190,2013-02-02 08:15:00
2:35 AM,28.4,12.2,51,30.17,10.0,SSW,9.2,-,N/A,,Clear,210,2013-02-02 08:35:00
3:15 AM,28.4,12.2,51,30.17,10.0,SSW,8.1,-,N/A,,Clear,200,2013-02-02 09:15:00
3:35 AM,28.4,12.2,51,30.16,10.0,SSW,6.9,-,N/A,,Scattered Clouds,200,2013-02-02 09:35:00
3:55 AM,26.6,12.2,55,30.15,10.0,South,5.8,-,N/A,,Clear,190,2013-02-02 09:55:00
4:15 AM,26.6,12.2,55,30.14,10.0,South,4.6,-,N/A,,Clear,180,2013-02-02 10:15:00
4:35 AM,26.6,12.2,55,30.14,10.0,South,3.5,-,N/A,,Scattered Clouds,190,2013-02-02 10:35:00
4:55 AM,26.6,14.0,59,30.14,10.0,South,5.8,-,N/A,,Mostly Cloudy,190,2013-02-02 10:55:00
5:15 AM,26.6,15.8,64,30.13,10.0,South,4.6,-,N/A,,Mostly Cloudy,190,2013-02-02 11:15:00
5:35 AM,26.6,14.0,59,30.13,10.0,South,4.6,-,N/A,,Scattered Clouds,190,2013-02-02 11:35:00
5:55 AM,26.6,15.8,64,30.13,10.0,SSW,5.8,-,N/A,,Mostly Cloudy,200,2013-02-02 11:55:00
6:15 AM,26.6,15.8,64,30.13,10.0,SSW,4.6,-,N/A,,Partly Cloudy,210,2013-02-02 12:15:00
6:35 AM,26.6,15.8,64,30.14,10.0,WSW,4.6,-,N/A,,Mostly Cloudy,250,2013-02-02 12:35:00
6:55 AM,28.4,15.8,59,30.14,10.0,West,3.5,-,N/A,,Overcast,260,2013-02-02 12:55:00
7:15 AM,30.2,15.8,55,30.14,10.0,West,6.9,-,N/A,,Mostly Cloudy,270,2013-02-02 13:15:00
7:35 AM,30.2,17.6,60,30.15,10.0,WNW,11.5,-,N/A,,Scattered Clouds,290,2013-02-02 13:35:00
7:55 AM,32.0,17.6,55,30.16,10.0,West,9.2,-,N/A,,Scattered Clouds,280,2013-02-02 13:55:00
8:15 AM,32.0,17.6,55,30.17,10.0,WNW,6.9,16.1,N/A,,Partly Cloudy,300,2013-02-02 14:15:00
8:35 AM,33.8,17.6,52,30.18,10.0,West,8.1,-,N/A,,Clear,280,2013-02-02 14:35:00
8:55 AM,33.8,19.4,56,30.19,10.0,WNW,8.1,-,N/A,,Clear,290,2013-02-02 14:55:00
9:15 AM,33.8,19.4,56,30.19,10.0,WNW,6.9,-,N/A,,Clear,290,2013-02-02 15:15:00
9:35 AM,35.6,19.4,52,30.19,10.0,WNW,4.6,-,N/A,,Clear,290,2013-02-02 15:35:00
9:55 AM,37.4,19.4,48,30.20,10.0,NW,8.1,-,N/A,,Clear,310,2013-02-02 15:55:00
10:15 AM,37.4,21.2,52,30.19,10.0,WNW,5.8,-,N/A,,Clear,300,2013-02-02 16:15:00
10:35 AM,37.4,19.4,48,30.20,10.0,NNW,8.1,-,N/A,,Clear,330,2013-02-02 16:35:00
10:55 AM,39.2,19.4,45,30.21,10.0,WNW,8.1,-,N/A,,Clear,290,2013-02-02 16:55:00
11:15 AM,39.2,19.4,45,30.20,10.0,NW,4.6,-,N/A,,Clear,310,2013-02-02 17:15:00
11:35 AM,39.2,21.2,49,30.19,10.0,NNW,4.6,-,N/A,,Clear,330,2013-02-02 17:35:00
11:55 AM,41.0,21.2,45,30.19,10.0,NW,8.1,-,N/A,,Mostly Cloudy,310,2013-02-02 17:55:00
12:15 PM,41.0,21.2,45,30.18,10.0,WNW,5.8,-,N/A,,Overcast,290,2013-02-02 18:15:00
12:35 PM,42.8,21.2,42,30.17,10.0,West,9.2,-,N/A,,Overcast,280,2013-02-02 18:35:00
12:55 PM,42.8,23.0,46,30.17,10.0,West,6.9,-,N/A,,Overcast,280,2013-02-02 18:55:00
1:15 PM,42.8,21.2,42,30.16,10.0,WNW,8.1,16.1,N/A,,Overcast,290,2013-02-02 19:15:00
1:35 PM,42.8,21.2,42,30.16,10.0,WNW,8.1,-,N/A,,Overcast,290,2013-02-02 19:35:00
1:55 PM,42.8,21.2,42,30.16,10.0,WNW,5.8,17.3,N/A,,Overcast,290,2013-02-02 19:55:00
2:15 PM,42.8,23.0,46,30.16,10.0,WNW,11.5,18.4,N/A,,Overcast,300,2013-02-02 20:15:00
2:35 PM,42.8,24.8,49,30.17,10.0,WNW,12.7,18.4,N/A,,Overcast,290,2013-02-02 20:35:00
2:55 PM,42.8,24.8,49,30.17,10.0,WNW,12.7,18.4,N/A,,Overcast,290,2013-02-02 20:55:00
3:15 PM,44.6,24.8,46,30.16,10.0,NW,6.9,17.3,N/A,,Mostly Cloudy,310,2013-02-02 21:15:00
3:35 PM,44.6,24.8,46,30.17,10.0,NW,9.2,20.7,N/A,,Clear,310,2013-02-02 21:35:00
3:55 PM,44.6,26.6,49,30.17,10.0,WNW,11.5,24.2,N/A,,Clear,300,2013-02-02 21:55:00
4:15 PM,42.8,24.8,49,30.17,10.0,West,10.4,16.1,N/A,,Scattered Clouds,280,2013-02-02 22:15:00
4:35 PM,42.8,26.6,53,30.17,10.0,WNW,8.1,-,N/A,,Overcast,290,2013-02-02 22:35:00
4:55 PM,42.8,26.6,53,30.17,10.0,West,5.8,-,N/A,,Overcast,270,2013-02-02 22:55:00
5:15 PM,42.8,26.6,53,30.17,10.0,NW,5.8,-,N/A,,Overcast,310,2013-02-02 23:15:00
5:35 PM,42.8,26.6,53,30.17,10.0,NW,4.6,-,N/A,,Overcast,320,2013-02-02 23:35:00
5:55 PM,42.8,26.6,53,30.17,10.0,Calm,Calm,-,N/A,,Overcast,0,2013-02-02 23:55:00
6:15 PM,41.0,24.8,53,30.16,10.0,Calm,Calm,-,N/A,,Overcast,0,2013-02-03 00:15:00
6:35 PM,39.2,24.8,56,30.16,10.0,Calm,Calm,-,N/A,,Mostly Cloudy,0,2013-02-03 00:35:00
6:55 PM,37.4,24.8,60,30.16,10.0,Calm,Calm,-,N/A,,Mostly Cloudy,0,2013-02-03 00:55:00
7:15 PM,37.4,24.8,60,30.16,10.0,Calm,Calm,-,N/A,,Scattered Clouds,0,2013-02-03 01:15:00
7:35 PM,35.6,24.8,65,30.15,10.0,Calm,Calm,-,N/A,,Scattered Clouds,0,2013-02-03 01:35:00
7:55 PM,35.6,24.8,65,30.16,10.0,Calm,Calm,-,N/A,,Scattered Clouds,0,2013-02-03 01:55:00
8:15 PM,35.6,24.8,65,30.14,10.0,South,5.8,-,N/A,,Partly Cloudy,180,2013-02-03 02:15:00
8:35 PM,30.2,23.0,75,30.14,10.0,Calm,Calm,-,N/A,,Clear,0,2013-02-03 02:35:00
8:55 PM,33.8,24.8,70,30.13,10.0,South,5.8,-,N/A,,Clear,190,2013-02-03 02:55:00
9:15 PM,33.8,24.8,70,30.12,10.0,SSW,5.8,-,N/A,,Clear,200,2013-02-03 03:15:00
9:35 PM,33.8,24.8,70,30.11,10.0,SW,4.6,-,N/A,,Clear,220,2013-02-03 03:35:00
9:55 PM,35.6,26.6,70,30.10,10.0,SW,5.8,-,N/A,,Partly Cloudy,220,2013-02-03 03:55:00
10:15 PM,37.4,28.4,70,30.09,10.0,WSW,5.8,-,N/A,,Scattered Clouds,240,2013-02-03 04:15:00
10:35 PM,39.2,28.4,65,30.09,10.0,West,5.8,-,N/A,,Mostly Cloudy,260,2013-02-03 04:35:00
10:55 PM,39.2,28.4,65,30.10,10.0,NW,4.6,-,N/A,,Overcast,320,2013-02-03 04:55:00
11:15 PM,39.2,30.2,70,30.08,10.0,West,5.8,-,N/A,,Overcast,260,2013-02-03 05:15:00
11:35 PM,41.0,30.2,65,30.07,10.0,West,6.9,-,N/A,,Overcast,260,2013-02-03 05:35:00
11:55 PM,42.8,30.2,61,30.09,10.0,West,12.7,19.6,N/A,,Overcast,280,2013-02-03 05:55:00